Weather in Bolshaya Doroga

Russia / Tambov Oblast     53°24′10″N   40°40′56″E
temp.,
°C
wind,
m/s
gust,
m/s
humid.,
%
clouds,
%
prec.,
mm/h
press.,
hPa
HPBL,
m
5 august, thu
thu500:00+17nnw236834 0.0 101756
03:00+16nw227294 0.0 101714
06:00+16n12705 0.0 101842
09:00+22ne11489 0.0 1018616
12:00+25s223787 0.0 10172158
15:00+27s333243 0.0 10162478
18:00+26sse443672 0.0 10151094
21:00+20se4749100 0.0 1015116
6 august, fri
fri600:00+19sse41053100 0.0 1015192
03:00+20sse4105199 0.0 1014220
06:00+18sse4115610 0.0 1014278
09:00+25s68405 0.0 1014632
12:00+30s78295 0.0 10132374
15:00+31s792799 0.0 10112817
18:00+29se693353 0.0 10101054
21:00+25sse614428 0.0 1010413
7 august, sat
sat700:00+24sse6164193 0.0 1011447
03:00+23sse6153797 0.0 1011452
06:00+22sse51541100 0.0 1012399
09:00+24s51042100 0.1 1013412
12:00+31sse6825100 0.0 10121303
15:00+32sse7822100 0.0 10111993
18:00+31sse582614 0.0 10111605
21:00+25se614387 0.0 1011273
8 august, sun
sun800:00+23se4134046 0.0 1012260
03:00+21se4124187 0.0 1012198
06:00+21sse31041100 0.0 1012229
09:00+26s4731100 0.0 1012360
12:00+28sw1733100 0.0 1012663
15:00+31s4629100 0.1 10121168
18:00+30wsw1533100 0.0 10131021
21:00+24w124299 0.0 101424
9 august, mon
mon900:00+20n358567 0.0 101591
03:00+19n47828 0.0 1015168
06:00+18nne48710 0.0 1015229
09:00+25nne45430 0.0 1015751
12:00+29n55331 0.0 10141307
15:00+30n55274 0.0 10131886
18:00+29n44270 0.0 10131918
21:00+22n45450 0.0 101466